Kish Island Airport
OIBK : now visible

Airfield :











YOU CAN JOIN US ON...

 
LOGIN :

Register | Disclaimer

   EN    FR    IT 

 









Legend :    VFR   Marginal VFR   IFR   Intensive IFR   Very Intensive IFR
Visi :
Ceiling :
>= 8 km
>= 3000ft
5 to 8 km
1000 to 3000 ft
1500m to 5 km
500 to 1000 ft
800 to 1500m
200 to 500 ft
< 800m
< 200 ft
Symbols :   Thunderstorms  Fog  Heavy snow  Heavy precipitations  Wind > 20 kt






- Airport Elevation : 101 ft
- IATA code : KIH


OIBK - Kish Island

CURRENT METAR :
  • 241100Z 19012KT 8000 NSC 35/27 Q1003 NOSIG

EXPIRED METARs :
  • 241000Z 18010KT 8000 NSC 36/25 Q1004 NOSIG
  • 240900Z 16012KT 7000 NSC 37/19 Q1004 NOSIG

TAF TAF OIBK
Valid from the 24 at 06:00 until the 25 at 12:00 UTC


240510Z 2406/2512 08010KT 6000 NSC
TEMPO 2406/2412 12020KT
BECMG 2414/2416 26004KT 4000 HZ
BECMG 2506/2508 08008KT
OIIX FIR / Asia



MET'MAP, your aeronautical weather chart ! - Copyright ORBIFLY December 2007 - Disclaimer

ORBIFLY MET'MAP TEAM :

Programming & Development : Alexandra Zaïnal
Concept & original design : Baudouin d'Aumeries
Assistance for programming : Marc-Olivier Méhu
Technical & hardware support : Manuel Goepfert

Contact : metmap@orbifly.com




SOURCES & CREDITS :

   NOAA       Earth
Advisory